timestamp,gas_concentrations,,corrected_fluxes_and_quality_flags,,,,,,,,,,storage_terms,,,turbulence,,,footprint,,
ISOdate,CO2_1_1_1,H2O_1_1_1,Tau_1_1_1,QcTau_1_1_1,H_1_1_1,QcH_1_1_1,LE_1_1_1, QcLE_1_1_1,Fc_1_1_1, QcFc_1_1_1,E_1_1_1, QcE_1_1_1,Sa_1_1_1,Sw_1_1_1,Sc_1_1_1,ustar_1_1_1,MO_length_1_1_1,ZL_1_1_1,Fetchmax_1_1_1,Fetch70_1_1_1,Fetch90_1_1_1
yyyymmddHHMM,[µmol+1mol_a-1],[mmol+1mol_a-1],[kg+1m-1s-2],[#],[W+1m-2],[#],[W+1m-2],[#],[µmol+1s-1m-2],[#],[mmol+1s-1m-2],[#],[W+1m-2],[W+1m-2],[µmol+1s-1m-2],[m+1s-1],[m],[#],[m],[m],[m]
201810290030,421.89628877669674,7.3325558766671444,0.22126486403510676,0,5.2402920546737786,0,-57.980636543616463,1,10.790935957314902,1,-1.2915013669291902,1,-9999.,-9999.,-9999.,0.43246883411302450,-1290.0527696388381,-1.67435011251881698E-002,113.65865935454437,207.80427887027710,311.32867664513702
201810290100,427.25029667722833,7.3868726666318567,7.53121952707404008E-002,0,-1.9824945134721803,0,-21.114358118809147,2,-86.781715777159306,1,-0.47031602269079836,2,0.0000000000000000,1.9424588238443232,4.2648977587101804,0.25228370400162092,677.05584152805670,3.19028338212852050E-002,92.255434560256873,168.67235773788590,252.70192801916448
201810290130,443.14703826981844,7.4043321301712135,0.25700248480861954,0,-64.662666262457449,0,-9999.,-9999.,-81.320702030127208,0,-9999.,-9999.,-1.8119439254712288,-178.46515713206725,12.668400981392237,0.46594494980394247,130.78680491119789,0.16515427542301420,121.17169507486037,221.54050432685935,331.90804544709800
201810290200,515.95277772264524,7.4217202698901525,0.29309843674181441,0,-45.691876145392378,0,-9999.,-9999.,-148.20029228560529,1,-9999.,-9999.,-2.7815266008631938,-177.86253025064639,58.054872101108984,0.49744428547510000,225.24733318577839,9.58945870501599212E-002,116.80402283614843,213.55500647687987,319.94431451960031
201810290230,460.81730256139599,7.4137782770105822,0.68749880109954786,1,-35.036548885456433,2,-9999.,-9999.,-56.028456304615702,1,-9999.,-9999.,-2.1934889114064822,81.275792819975536,-43.981049588776955,0.76171464857885784,1054.7007106817030,2.04797434772172465E-002,159.67908550845334,291.94429534174128,437.38575363782712
201810290300,484.13169488681768,7.4241628870227121,1.7879414464374723,1,-203.85031199700572,1,-9999.,-9999.,-18.740936690339076,2,-9999.,-9999.,-0.18604854096849913,-106.28954046143723,18.600468385057152,1.2282907459493762,760.15851787084057,2.84151259141321409E-002,191.60617224118047,350.31719251121581,524.83899053224081
201810290330,501.15601894989970,7.4439722431227224,0.60779706494199004,1,53.043014708944042,1,-618.90012800873956,2,8.3774575956074262,1,-13.782070236730483,2,0.33333727835988430,0.70970052294740260,13.582150238765509,0.71615335053378948,-579.05349608710083,-3.73022529800095468E-002,165.29828302397070,302.21798055123560,452.77760619220714
201810290400,499.62198407471635,7.5128223848353883,1.2408107223773603,1,17.539607172582905,2,-9999.,-9999.,-50.781601309175684,1,-9999.,-9999.,1.9919018064127525,-704.49281772399081,-1.2236232237696127,1.0233595677023850,-5110.1512397991328,-4.22688076857174241E-003,178.34585738944082,326.07310780172628,488.51693378676947
201810290430,565.04446485415394,7.5731320386065271,1.1757258698871516,1,-188.05258861945816,1,-9999.,-9999.,164.20971655786931,2,-9999.,-9999.,1.9138473828758167,-616.87219805981806,52.168713530300991,0.99631843960102440,439.83405552334716,4.91094305426138938E-002,159.68311601951191,291.95166440142191,437.39679383204714
201810290500,567.12496427642873,7.6441256873136192,0.90593008363354854,1,37.058688498264196,2,-9999.,-9999.,-528.96776623921028,1,-9999.,-9999.,2.4474470135504758,-725.76225655240489,1.6582910352009710,0.87476883217358481,-1510.6077895294213,-1.42988803246729915E-002,159.18461624135358,291.04024781859869,436.03132570913175
201810290530,500.95318454831374,7.6956377915040228,0.84079543674355905,1,28.067271670995762,2,-9999.,-9999.,23.876691477024316,2,-9999.,-9999.,1.8894522708370223,-526.46097386796521,-52.732891132648291,0.84282530811154388,-1784.0600645431100,-1.21072156870075266E-002,167.07208373633404,305.46105397815705,457.63632115108811
201810290600,492.83427270642102,7.7446277773751815,0.21899689239776718,0,-103.07861243005375,0,-9999.,-9999.,147.87825752633100,0,-9999.,-9999.,2.0361031186946978,-500.52039226265987,-6.4684523807775216,0.43019812106108513,64.604143673285492,0.33434387907430518,98.408343754970460,179.92183811556058,269.55569954863915
201810290630,452.04034329089956,7.7951949365601427,0.32373556909302165,0,-124.31510742700030,0,-9999.,-9999.,-134.01704519565735,1,-9999.,-9999.,3.3509097765393867,-516.35642020509783,-32.488099458537178,0.52316153268723420,96.349386829123659,0.22418409406494469,86.156219786029197,157.52104788581659,235.99523382605861
201810290700,440.66729546189345,7.7548120173622106,0.44086867060166840,0,-72.010679379412949,1,-9999.,-9999.,-22.282285648077206,1,-9999.,-9999.,0.85906020598667654,412.37461844034073,-9.0580374912282942,0.61048872340465310,264.33855800557853,8.17133912016882596E-002,105.11489468836959,192.18355216652847,287.92598157383247
201810290730,507.12302775486387,7.5698485757636167,0.47733425277896069,0,-204.81062569087410,1,-9999.,-9999.,-48.772557433719989,1,-9999.,-9999.,-1.4787977848809719,1889.7096624321216,52.951510647499738,0.63507463428786970,104.63956321358246,0.20642287999531969,97.913355437540844,179.01684160287240,268.19984986067601
201810290800,463.07993101961341,7.3542835677317928,0.64227321924635405,0,-327.91364496501330,1,-9999.,-9999.,140.18594855490252,1,-9999.,-9999.,-7.7307224317392498,2206.4395598217666,-35.147223552490104,0.73607486626631691,101.78110621304677,0.21222013400785003,101.29264561694909,185.19526182015488,277.45624920173520
201810290830,487.13571654123615,7.1968885641885150,0.54691896942539298,0,-186.69405967179054,0,-9999.,-9999.,-18.667319188435478,2,-9999.,-9999.,-4.8584144000996083,1612.8684212037522,19.215015983776976,0.67890123801964308,140.27967426060385,0.15397811631550207,97.139551600544564,177.60208139676729,266.08028126886728
201810290900,491.32613783485715,7.1846461119992044,0.51820796679499714,0,-234.44623742814397,0,-9999.,-9999.,-2.3707416768144167,2,-9999.,-9999.,-4.2486482097936804,125.57320584424950,3.3498407328539002,0.66057709371628903,102.91358523532725,0.20988482667869732,105.09261924034445,192.14282554314875,287.86496567064722
201810290930,438.79609816433185,7.1216235734803837,0.58028181785495614,0,-205.19778092004083,0,611.25880251899446,1,-71.225611392056408,1,13.608180975925391,1,-2.9071120019303569,-2.2647458372446860,-42.024858181555551,0.69874663846340324,139.19506602094827,0.15517791411334431,111.60036679883804,204.04106361970489,305.69069445217735
201810291000,430.05212355394036,6.9589041299510415,0.55952671641086671,0,-42.059517163761690,1,514.57223676645174,1,-21.529803359786520,1,11.454133947729524,1,-3.3371762820957076,-5.8528369347199938,-7.0008660617956027,0.68584360110462406,642.27492970796095,3.36304579252710498E-002,105.45966217441268,192.81389708896518,288.87035313152654
201810291030,425.73749243127872,6.9362493909403513,0.42163698345522072,0,3.3803753407257413,0,26.826839260138872,0,2.4524773949014524,0,0.59705320210924429,0,-4.0957849229118350,-0.81581312586403187,-3.4579508957625729,0.59506721852150857,-5220.9808457236386,-4.13715365718914010E-003,118.93942871440666,217.45920947510976,325.79352204988248
201810291100,427.06218918477560,6.9281202436586415,0.50775331902178988,0,4.0177937353723632,0,69.500494808168980,0,-1.3250031503535040,1,1.5466309779980445,0,-2.5324151892365827,-0.29296972182446956,1.0624121447879837,0.65278729204548258,-5800.1413902610639,-3.72404714758648109E-003,119.78976435195059,219.01389422118186,328.12272310015129
201810291130,439.62894296824288,6.9623050561227409,0.46442628750352072,0,-9.1253539919239017,2,178.40702445019576,2,3.3571836440630527,2,3.9698090964272876,2,-2.3309135176384634,1.2326893702820247,10.083266089791845,0.62417408517678152,2232.6073274208479,9.67478684438107146E-003,105.78376947710463,193.40646860700849,289.75813324622374
201810291200,424.45593446230924,7.0306428350039081,0.36067011960594786,0,-9.4585025129557767,0,137.57104257162493,1,-6.9026609533075751,0,3.0613765850638446,1,1.8164992977061698,2.4641557954337623,-12.174993335656760,0.55004546713866931,1474.4311860231846,1.46497172636854099E-002,105.00787870139430,191.98789281133915,287.63284820595629
201810291230,425.95651801856258,7.0578794232953319,0.40844244512022621,0,-11.960566406762533,1,-47.803755852220668,2,-2.9387716432275699,2,-1.0638023987033614,2,0.52244131251378179,0.98227269282827612,1.2043105569755477,0.58528924589166909,1405.0645075454056,1.53729596641327040E-002,110.43020992817129,201.90164365773364,302.48545349578450
201810291300,426.38048128514578,7.1161525956289875,0.45011240630210297,0,5.7856830397561385,2,-4.3629456523885182,2,-6.6247407654109374,1,-9.70984551638209986E-002,2,1.9022003356286286,2.1009390208880458,0.34017745905606178,0.61449860837298698,-3361.7736405842738,-6.42517977392610424E-003,123.53251578421725,225.85683752871060,338.37469912236082
201810291330,425.45318664179871,7.1546880296084110,0.26977035962084650,0,-3.9418424627083457,0,6.49635329321686522E-002,2,-4.6488461118634090,0,1.44586362802510168E-003,2,1.4266456903511160,1.3892336533510043,-0.74403007280951605,0.47573267623421833,2289.9106428016753,9.43268247951050548E-003,112.51120992834238,205.70637535895540,308.18563489710493
201810291400,441.14613156782059,7.1759833996531990,0.20557660534665070,0,-7.6008759842238209,2,127.50400034863779,2,-28.356740172014160,1,2.8378998005560132,2,0.88105936662883211,0.76779377780347513,12.593228819900489,0.41526421974400113,789.99731598236076,2.73418650456304715E-002,116.99342474994832,213.90129358194821,320.46311570476507
201810291430,434.80745711182141,7.2399524993715074,0.20860183996811260,0,-10.849424257676949,0,64.944640178394209,2,-5.6072420858450345,1,1.4456794937501924,2,3.1423113073596696,2.3061424025497783,-5.0867809483774655,0.41830786443517065,565.92906984684112,3.81673272338628328E-002,107.28815297854965,196.15696144615904,293.87887272468856
201810291500,461.79490250366280,7.2803515522284794,0.32588231097817472,0,-9.9465752003800709,2,-9999.,-9999.,-46.552734568739346,1,-9999.,-9999.,2.1054806829463444,-416.08136022274488,21.659388724288544,0.52281828344836967,1205.5696729875776,1.79168408794425360E-002,113.06253107127863,206.71436624310289,309.69578892154590
201810291530,454.63965846335986,7.2821779164699691,0.22006294967391901,0,-35.415615565431729,2,-9999.,-9999.,-115.10779296194991,1,-9999.,-9999.,1.0371888109269787,-18.810244298280836,-5.7428455852704348,0.42962035912713636,187.90423473288874,0.11495217247607549,107.31721927168462,196.21010390022849,293.95848980470760
201810291600,472.14180114739855,7.2901215812662992,0.37805437723362123,0,7.1494293833180365,0,-9999.,-9999.,-3.4856977728225198,1,-9999.,-9999.,0.88117642555379072,-81.806879262390211,14.046603959596350,0.56311936661165729,-2096.2051286062183,-1.03043350601675111E-002,130.05362701653519,237.77950866314285,356.23703307687543
201810291700,470.45659872532889,7.2048109319918687,0.16437619066394449,0,0.52706927117694602,2,-9999.,-9999.,32.349401831536255,2,-9999.,-9999.,-9999.,-9999.,-9999.,0.37115545100660435,-8142.2210606822646,-2.65283880639198251E-003,93.865665931455553,171.61637424139272,257.11260121146381
201810291730,437.44370525681910,7.3419174121326556,0.27113168627786144,1,45.183928676806893,1,-9999.,-9999.,-17.270908404730648,1,-9999.,-9999.,6.2915125603805944,-1411.5166521053279,-26.488449727876315,0.47694830970635083,-201.53621695494743,-0.10717676617314192,113.17726438318256,206.92413532957627,310.01006123801534
201810291800,394.64626137004876,7.2697575886854535,0.15354359246312105,1,23.182548099577470,0,157.88451813496224,1,-11.678538267860436,1,3.5160979786348805,1,4.9764281397642449,-2.5970853920722550,-34.302835543529909,0.35910501006201540,-167.62250994265156,-0.12886097462321724,118.85237524281179,217.30004796475359,325.55506910434445
201810291830,410.08927270867599,7.2045871781147586,0.10089165849416191,1,51.197312793302025,1,-51.547993586105399,2,53.889375432875795,2,-1.1482664133570724,2,6.1845198434828319,-2.3423767885880054,12.364290071588755,0.29124962695375278,-40.488604352073487,-0.53348344171546702,109.19728203030790,199.64745823825461,299.10827297104049
201810291900,432.14179364888184,7.0685301489896455,7.99037974897869874E-002,1,5.2163028758861261,0,112.65185769591824,2,-14.400390030487983,2,2.5098515614372734,2,4.4468692544549695,-4.8862599708821355,17.645074983728424,0.25926638975062116,-280.33052202706625,-7.70519023180590151E-002,107.72657211810511,196.95853145987931,295.07977067042208
201810291930,424.44600794353994,7.1507758096993168,6.69838788621377607E-002,1,11.817681355530389,1,51.697635419154075,1,0.64049246825285944,2,1.1519340287300828,1,2.6656348597491757,2.9523160557012957,-6.1554491616029532,0.23742894850295979,-95.035247250701474,-0.22728409326930613,124.43363866338515,227.50437755023125,340.84301429569814
201810292000,424.32709065542593,7.0791905729776055,2.01793288400575303E-002,0,1.6352435506176144,0,14.277126325760920,0,-0.58663817649070982,0,0.31814079305348741,0,1.2197649868849958,-2.5687775223013407,-9.50881899908737616E-002,0.13033425903366991,-113.59876406740129,-0.19014291376606987,71.828594150434114,269.00000000000000,685.00000000000000
201810292030,424.17915614112934,7.1402463626596457,3.03453806208331643E-002,0,0.93322472572576065,1,36.571490242168345,0,-1.0929095400230697,0,0.81505167316340410,0,3.6022312984677289,2.1889590289173384,-0.11820144234107409,0.15988978146969551,-367.45157306166658,-5.87832563078319950E-002,78.271745308792632,343.00000000000000,975.00000000000000
201810292100,424.22127904345490,7.0434145212037018,8.45536084115187936E-003,0,-2.9544845024202715,2,11.062467110604450,0,-0.32804474532079853,0,0.24656271894399040,0,1.8547409539391482,-3.4700381344005216,3.36441655773473264E-002,8.44137921896996324E-002,17.078502624201537,1.2647478807299628,273.56740233880424,2477.0000000000000,-9999.
201810292130,423.94394750190258,7.1640654368973236,2.04263196966968062E-002,0,-2.3420172001521258,1,15.908199481435382,0,0.40950948274092769,0,0.35456412607728277,0,-9.31339693675145436E-002,4.3239549041798941,-0.22152541747269797,0.13120063040659494,80.897780870706583,0.26700361576693693,109.75897430983942,959.00000000000000,4542.0000000000000
201810292200,424.06691309090422,7.2672991160382514,3.30057497195145530E-002,0,-1.7071676699434166,0,10.446385519281552,0,0.33985952152485993,1,0.23282300828257685,0,-0.78393108011313628,3.7000556892413545,9.82268680341698980E-002,0.16677577132128812,227.94350975963448,9.47603203213687184E-002,98.823261313076927,740.00000000000000,3114.0000000000000
201810292230,424.18515031303860,7.2275896119790701,3.55144842828190727E-002,1,-5.5974344121294557,0,15.206596137810834,0,0.28256410577868607,1,0.33892260839460153,0,0.48885608841202549,-1.4228507417023246,9.44251378553200016E-002,0.17301919615239922,77.613672054561093,0.27830148256373655,109.04163422134185,955.00000000000000,4533.0000000000000
201810292300,424.55584503024852,7.1317047923702992,2.97405452184697251E-002,1,-2.6133288412657882,0,4.7311893698056799,2,0.73083486569869494,0,0.10545240714386760,2,0.99298009866298509,-3.4347397909437807,0.29596922078120858,0.15834696031353993,127.42270200776194,0.16951453437774566,109.53851416183306,908.00000000000000,4127.0000000000000
201810292330,424.71479217136726,7.2003601222352396,7.32514687521513413E-002,1,-6.1757159522949783,1,12.231020570884429,1,-1.26041550171190342E-002,1,0.27259705889724722,1,-1.5598409876073560,2.4603399503106473,0.12694980867428479,0.24847030911307580,208.34545343638933,0.10367396861191776,132.84562780813860,242.88417657317478,363.88475579838502
201810300000,424.74873707798702,7.1060476877198591,1.49915512008182063E-002,0,-7.1211376166642903,0,12.871498032027930,0,0.50352801264397540,0,0.28688107162118776,0,0.80708057276246792,-3.3797248737238901,2.71118910491649941E-002,0.11240326375915802,16.729061353508374,1.2911662850390651,258.62812657783269,2315.0000000000000,-9999.
